Flag for U.S.A. Weather past 2 weeks in Kykotsmovi Village, Hopi, Arizona, U.S.A.

Now
23 °F

Clear.


Feels Like: 18 °F
Forecast: 15 / 40 °F
Wind: 3 mph from Southeast

Location: Winslow Municipal Airport

Current Time: Dec 19, 2014 at 6:51:50 AM

Latest Report: Dec 19, 2014 at 5:56 AM


Visibility: 10 mi

Pressure: 30.31 "Hg

Humidity: 92%

Dew point: 21 °F

Location of Kykotsmovi Village, HopiLocation

Historic Weather in Kykotsmovi Village, Hopi — Graph

°F

Kykotsmovi Village, Hopi temperature yesterday

Maximum temperature yesterday: 44 °F (at 2:56 PM)
Minimum temperature yesterday: 29 °F (at 11:56 PM)
Average temperature yesterday: 34 °F

Past Weeks' High & Low Weather Summary

 TemperatureHumidityPressure
High63 °F (Dec 12, 12:56 PM)100% (Dec 4, 4:56 AM)30.45 "Hg (Dec 4, 4:56 AM)
Low23 °F (Dec 19, 4:56 AM)33% (Dec 12, 12:56 PM)29.85 "Hg (Dec 13, 2:56 PM)
Average40 °F83%30.17 "Hg
* Reported Dec 4 4:02 AM — Dec 19 4:56 AM, Kykotsmovi Village, Hopi, Weather by CustomWeather, © 2014

Note: Actual official high and low records may vary slightly from our data, if they occured in-between our weather recording intervals... More about our weather records

Advertising

Kykotsmovi Village, Hopi weather history for previous 24 hours

 ConditionsComfort  
Time TempWeatherWind HumidityBarometerVisibility
4:56 AM
Dec 19
23 °FClear.No wind88%30.26 "Hg10 mi
3:56 AM27 °FClear.No wind89%30.24 "Hg10 mi
2:56 AM25 °FClear.3 mph92%30.23 "Hg10 mi
1:56 AM27 °FClear.No wind92%30.23 "Hg10 mi
12:56 AM28 °FClear.3 mph93%30.24 "Hg10 mi
11:56 PM
Dec 18
29 °FClear.5 mph89%30.25 "Hg10 mi
10:56 PM30 °FClear.3 mph89%30.25 "Hg10 mi
9:56 PM30 °FClear.No wind89%30.25 "Hg10 mi
8:56 PM31 °FClear.No wind92%30.24 "Hg10 mi
7:56 PM32 °FClear.8 mph88%30.23 "Hg10 mi
6:56 PM32 °FClear.6 mph88%30.21 "Hg10 mi
5:56 PM34 °FClear.7 mph85%30.19 "Hg10 mi
4:56 PM42 °FSunny.6 mph65%30.14 "Hg10 mi
3:56 PM44 °FSunny.5 mph63%30.11 "Hg10 mi
2:56 PM44 °FSunny.6 mph60%30.11 "Hg10 mi
1:56 PM42 °FOvercast.No wind65%30.11 "Hg10 mi
12:56 PM42 °FOvercast.No wind65%30.12 "Hg10 mi
11:56 AM40 °FPartly sunny.3 mph77%30.15 "Hg10 mi
10:56 AM38 °FOvercast.5 mph83%30.17 "Hg10 mi
9:56 AM34 °FPartly sunny.5 mph88%30.18 "Hg10 mi
8:56 AM32 °FOvercast.6 mph92%30.16 "Hg10 mi
7:56 AM31 °FScattered clouds.6 mph89%30.15 "Hg10 mi
6:56 AM31 °FClear.3 mph89%30.14 "Hg10 mi
Weather by CustomWeather, © 2014

See weather overviewHow to use our weather pages